Regional Weather Roundup
Issued by NWS Nashville, TN

Home | Current Version | Previous Version | Text Only | Print | Product List | Glossary On
Versions: 1 2 3 4 5 6 7 8 9 10 11 12 13 14 15 16 17 18 19 20 21 22 23 24 25 26 27 28 29 30 31 32 33 34 35 36 37 38 39 40 41 42 43 44 45 46 47 48 49 50
000
ASUS44 KOHX 231510
RWROHX
MIDDLE TENNESSEE HOURLY WEATHER ROUNDUP
NATIONAL WEATHER SERVICE NASHVILLE TN
1000 AM CDT SAT MAY 23 2015

NOTE: "FAIR" INDICATES FEW OR NO CLOUDS BELOW 12,000 FEET WITH
NO SIGNIFICANT WEATHER AND/OR OBSTRUCTIONS TO VISIBILITY.

* THESE REPORTS ARE NOT UNDER NWS QUALITY CONTROL AND MAY NOT
  REPORT WEATHER SUCH AS PRECIPITATION AND FOG.


TNZ005>011-023>034-057-059-062>066-078-080-231600
...NORTHERN MIDDLE TENNESSEE...

CITY           SKY/WX    TMP DP  RH WIND       PRES   REMARKS
CASTALIAN SPRG   N/A     72  48  43 E5        30.36S
CLARKSVILLE    PTSUNNY   68  53  58 SE6       30.35F
CROSSVILLE     MOSUNNY   67  50  54 VRB6      30.41S
GLADEVILLE*      N/A     70  54  56 S1        30.33S
JOELTON*         N/A     68  55  64 E2        30.30F
MOUNT JULIET*    N/A     68  54  60 CALM      30.22S
NASHVILLE      PTSUNNY   68  49  50 CALM      30.37S
PORTLAND       PTSUNNY   70  46  43 SE7       30.36S
ROCKWOOD       MOSUNNY   65  49  56 E5        30.41S
SMYRNA         MOSUNNY   69  52  54 E5        30.37F
SPARTA         SUNNY     72  55  56 S8        30.37S
$$
TNZ056-058-060-061-075>077-079-093>097-231600
...SOUTHERN MIDDLE TENNESSEE...

CITY           SKY/WX    TMP DP  RH WIND       PRES   REMARKS
COLUMBIA       SUNNY     70  55  60 CALM      30.34F
LEWISBURG      PTSUNNY   69  50  50 E3        30.35S
MANCHESTER*      N/A     73  59  60 CALM      30.39F
MCMINNVILLE    SUNNY     73  55  53 VRB5      30.37S
MOUNT PLEASANT   N/A     68  59  73 CALM      30.30S
SHELBYVILLE    SUNNY     72  55  56 S5        30.37S
TULLAHOMA      SUNNY     72  52  49 S9        30.37F
WINCHESTER     SUNNY     73  55  53 S8        30.37S
$$


...KEY TO REMARKS...
VSB - VISIBILITY IN MILES
WCI - WIND CHILL INDEX
HX  - HEAT INDEX




USA.gov is the U.S. government's official web portal to all federal, state and local government web resources and services.